Location: Unspecified
(0.0000°N, 0.0000°E)
Time: 23:20:41
(UTC+00:00)

NOSS 2-1 (C) - Visible Passes

Search period start: 30 May 2024 00:00
Search period end: 09 June 2024 00:00
Orbit: 387 x 1746 km, 63.3° (Epoch: 30 May)

Date Brightness Start Highest point End Pass type
(mag) Time Alt. Az. Time Alt. Az. Time Alt. Az.
04 Jun 6.9 21:07:01 10° N 21:07:25 12° N 21:07:25 12° N visible
05 Jun 6.6 20:12:39 10° NNE 20:13:28 13° NNE 20:13:28 13° NNE visible
06 Jun 6.4 21:04:06 10° NNW 21:06:13 24° NNW 21:06:13 24° NNW visible
07 Jun 5.8 20:08:47 10° N 20:12:25 30° NE 20:12:25 30° NE visible
07 Jun 7.3 21:58:43 10° WNW 21:59:03 11° WNW 21:59:03 11° WNW visible
08 Jun 6.3 19:15:17 10° NE 19:18:41 15° ENE 19:18:41 15° ENE visible
08 Jun 5.9 21:01:30 10° NW 21:05:20 39° NW 21:05:20 39° NW visible
